UAL2159 KDEN-KMCI

Flight info

Callsign UAL2159
Flight time 1h 1m
Altitude 37000
Route EMMYS8 ZIRKL DPEAK JSONN4
Aircraft B738/M-SDE2E3FGHIRWXY/LB1

Departure

Time 2026-05-07 20:27
Airport Denver International Airport (KDEN)

Arrival

Time 2026-05-07 21:29
Airport Kansas City International Airport (KMCI)
Time Latitude Longitude Altitude Speed Heading
2026-05-07 19:46 39.85445 -104.67809 5364 ft 0 kts 167°
2026-05-07 20:14 39.85455 -104.67811 5361 ft 4 kts 174°
2026-05-07 20:15 39.85480 -104.67809 5362 ft 4 kts 201°
2026-05-07 20:15 39.85502 -104.67791 5361 ft 4 kts 230°
2026-05-07 20:15 39.85515 -104.67762 5364 ft 4 kts 261°
2026-05-07 20:15 39.85514 -104.67738 5363 ft 0 kts 307°
2026-05-07 20:18 39.85516 -104.67740 5363 ft 2 kts 306°
2026-05-07 20:19 39.85534 -104.67764 5363 ft 4 kts 321°
2026-05-07 20:19 39.85566 -104.67782 5364 ft 7 kts 341°
2026-05-07 20:19 39.85594 -104.67831 5364 ft 7 kts 275°
2026-05-07 20:19 39.85595 -104.67905 5365 ft 10 kts 270°
2026-05-07 20:20 39.85596 -104.68016 5365 ft 15 kts 271°
2026-05-07 20:20 39.85596 -104.68111 5365 ft 17 kts 270°
2026-05-07 20:20 39.85597 -104.68283 5365 ft 21 kts 270°
2026-05-07 20:20 39.85598 -104.68444 5363 ft 13 kts 271°
2026-05-07 20:21 39.85655 -104.68511 5363 ft 12 kts 358°
2026-05-07 20:21 39.85741 -104.68511 5363 ft 12 kts
2026-05-07 20:21 39.85832 -104.68510 5364 ft 13 kts
2026-05-07 20:21 39.85931 -104.68509 5364 ft 16 kts
2026-05-07 20:22 39.86053 -104.68508 5363 ft 19 kts
2026-05-07 20:22 39.86188 -104.68506 5365 ft 19 kts
2026-05-07 20:22 39.86319 -104.68504 5363 ft 18 kts
2026-05-07 20:22 39.86375 -104.68504 5364 ft 0 kts
2026-05-07 20:23 39.86377 -104.68504 5365 ft 1 kts
2026-05-07 20:23 39.86397 -104.68504 5362 ft 4 kts 355°
2026-05-07 20:24 39.86421 -104.68519 5364 ft 5 kts 319°
2026-05-07 20:24 39.86430 -104.68592 5365 ft 9 kts 269°
2026-05-07 20:24 39.86429 -104.68673 5367 ft 9 kts 269°
2026-05-07 20:24 39.86440 -104.68714 5365 ft 4 kts 332°
2026-05-07 20:25 39.86464 -104.68716 5367 ft 0 kts
2026-05-07 20:26 39.86470 -104.68716 5367 ft 7 kts 360°
2026-05-07 20:26 39.86753 -104.68714 5365 ft 75 kts
2026-05-07 20:26 39.87495 -104.68704 5364 ft 136 kts
2026-05-07 20:27 39.88621 -104.68705 5365 ft 186 kts 359°
2026-05-07 20:27 39.89952 -104.68613 6035 ft 187 kts
2026-05-07 20:27 39.91178 -104.68491 7007 ft 176 kts
2026-05-07 20:27 39.92357 -104.67676 7321 ft 215 kts 39°
2026-05-07 20:28 39.93285 -104.66013 7540 ft 242 kts 59°
2026-05-07 20:28 39.94001 -104.63898 7716 ft 267 kts 63°
2026-05-07 20:28 39.94709 -104.61600 8209 ft 279 kts 71°
2026-05-07 20:28 39.95024 -104.59054 8602 ft 301 kts 86°
2026-05-07 20:29 39.95086 -104.56274 9259 ft 310 kts 87°
2026-05-07 20:29 39.95134 -104.53463 10109 ft 312 kts 87°
2026-05-07 20:29 39.95195 -104.50582 10562 ft 329 kts 86°
2026-05-07 20:29 39.95274 -104.47495 10818 ft 351 kts 86°
2026-05-07 20:30 39.95363 -104.44278 11394 ft 359 kts 86°
2026-05-07 20:30 39.95448 -104.41011 11917 ft 362 kts 88°
2026-05-07 20:30 39.95119 -104.37773 11977 ft 361 kts 105°
2026-05-07 20:30 39.94392 -104.34628 11986 ft 364 kts 107°
2026-05-07 20:31 39.93650 -104.31475 11976 ft 364 kts 106°
2026-05-07 20:31 39.92946 -104.28354 11977 ft 364 kts 105°
2026-05-07 20:31 39.92253 -104.25181 11966 ft 364 kts 105°
2026-05-07 20:31 39.91568 -104.22006 11949 ft 365 kts 105°
2026-05-07 20:32 39.90992 -104.18771 12126 ft 369 kts 100°
2026-05-07 20:32 39.90536 -104.15469 12888 ft 371 kts 99°
2026-05-07 20:32 39.90105 -104.12160 13750 ft 371 kts 98°
2026-05-07 20:32 39.89666 -104.08833 14418 ft 375 kts 99°
2026-05-07 20:33 39.89209 -104.05465 15068 ft 380 kts 99°
2026-05-07 20:33 39.88741 -104.02098 15718 ft 384 kts 99°
2026-05-07 20:33 39.88257 -103.98667 16420 ft 387 kts 100°
2026-05-07 20:33 39.87765 -103.95202 17087 ft 391 kts 100°
2026-05-07 20:34 39.87274 -103.91698 17728 ft 396 kts 98°
2026-05-07 20:34 39.87202 -103.88110 18322 ft 399 kts 83°
2026-05-07 20:34 39.87517 -103.84513 18898 ft 403 kts 81°
2026-05-07 20:34 39.87845 -103.80847 19291 ft 412 kts 82°
2026-05-07 20:35 39.88135 -103.77125 19857 ft 414 kts 82°
2026-05-07 20:35 39.88400 -103.73381 20468 ft 416 kts 82°
2026-05-07 20:35 39.88729 -103.69673 21002 ft 419 kts 79°
2026-05-07 20:35 39.89150 -103.65903 21534 ft 423 kts 78°
2026-05-07 20:36 39.89609 -103.62100 22053 ft 427 kts 78°
2026-05-07 20:36 39.90077 -103.58265 22574 ft 431 kts 78°
2026-05-07 20:36 39.90543 -103.54398 23089 ft 434 kts 78°
2026-05-07 20:36 39.91004 -103.50492 23584 ft 438 kts 78°
2026-05-07 20:37 39.91459 -103.46558 24085 ft 439 kts 78°
2026-05-07 20:37 39.91908 -103.42622 24574 ft 441 kts 78°
2026-05-07 20:37 39.92356 -103.38654 24969 ft 445 kts 78°
2026-05-07 20:37 39.92800 -103.34705 25355 ft 449 kts 78°
2026-05-07 20:38 39.93252 -103.30667 25759 ft 452 kts 78°
2026-05-07 20:38 39.93704 -103.26604 26165 ft 455 kts 78°
2026-05-07 20:38 39.94158 -103.22519 26558 ft 457 kts 77°
2026-05-07 20:38 39.94614 -103.18403 26940 ft 461 kts 77°
2026-05-07 20:39 39.95072 -103.14257 27315 ft 464 kts 77°
2026-05-07 20:39 39.95531 -103.10087 27716 ft 466 kts 78°
2026-05-07 20:39 39.95991 -103.05896 28106 ft 468 kts 77°
2026-05-07 20:39 39.96451 -103.01684 28472 ft 471 kts 77°
2026-05-07 20:40 39.96913 -102.97439 28817 ft 474 kts 77°
2026-05-07 20:40 39.97370 -102.93229 29150 ft 477 kts 77°
2026-05-07 20:40 39.97835 -102.88932 29484 ft 480 kts 77°
2026-05-07 20:40 39.98300 -102.84613 29814 ft 482 kts 77°
2026-05-07 20:41 39.98766 -102.80274 30121 ft 485 kts 77°
2026-05-07 20:41 39.99233 -102.75910 30411 ft 487 kts 78°
2026-05-07 20:41 39.99700 -102.71531 30729 ft 488 kts 78°
2026-05-07 20:41 40.00165 -102.67143 31015 ft 489 kts 78°
2026-05-07 20:42 40.00631 -102.62740 31265 ft 491 kts 78°
2026-05-07 20:42 40.01098 -102.58311 31497 ft 494 kts 78°
2026-05-07 20:42 40.01558 -102.53932 31790 ft 494 kts 78°
2026-05-07 20:42 40.02022 -102.49496 32166 ft 493 kts 78°
2026-05-07 20:43 40.02481 -102.45074 32563 ft 491 kts 78°
2026-05-07 20:43 40.02939 -102.40661 32968 ft 491 kts 78°
2026-05-07 20:43 40.03396 -102.36250 33262 ft 491 kts 78°
2026-05-07 20:43 40.03852 -102.31827 33538 ft 492 kts 78°
2026-05-07 20:44 40.04306 -102.27411 33873 ft 491 kts 78°
2026-05-07 20:44 40.04751 -102.23056 34159 ft 490 kts 78°
2026-05-07 20:44 40.05201 -102.18642 34383 ft 491 kts 78°
2026-05-07 20:44 40.05650 -102.14219 34600 ft 492 kts 78°
2026-05-07 20:45 40.06098 -102.09788 34839 ft 492 kts 79°
2026-05-07 20:45 40.06545 -102.05358 35086 ft 492 kts 79°
2026-05-07 20:45 40.06989 -102.00924 35291 ft 494 kts 79°
2026-05-07 20:45 40.07435 -101.96468 35413 ft 497 kts 79°
2026-05-07 20:46 40.07881 -101.91993 35629 ft 497 kts 79°
2026-05-07 20:46 40.08318 -101.87585 35887 ft 496 kts 80°
2026-05-07 20:46 40.08758 -101.83123 36119 ft 496 kts 80°
2026-05-07 20:46 40.09198 -101.78650 36313 ft 497 kts 80°
2026-05-07 20:47 40.09637 -101.74169 36509 ft 497 kts 80°
2026-05-07 20:47 40.10074 -101.69694 36728 ft 497 kts 80°
2026-05-07 20:47 40.10509 -101.65211 36916 ft 498 kts 80°
2026-05-07 20:48 40.11384 -101.56161 36908 ft 504 kts 81°
2026-05-07 20:48 40.12246 -101.47155 36893 ft 501 kts 81°
2026-05-07 20:49 40.13103 -101.38135 36896 ft 499 kts 81°
2026-05-07 20:49 40.13542 -101.29099 36913 ft 498 kts 88°
2026-05-07 20:50 40.13534 -101.20052 36897 ft 497 kts 89°
2026-05-07 20:50 40.13515 -101.11082 36902 ft 497 kts 88°
2026-05-07 20:51 40.13562 -101.02044 36904 ft 498 kts 88°
2026-05-07 20:51 40.13640 -100.92987 36908 ft 499 kts 88°
2026-05-07 20:52 40.13719 -100.83908 36916 ft 501 kts 88°
2026-05-07 20:52 40.13788 -100.74791 36925 ft 503 kts 88°
2026-05-07 20:53 40.13847 -100.65704 36935 ft 504 kts 88°
2026-05-07 20:53 40.13898 -100.56523 36942 ft 506 kts 88°
2026-05-07 20:54 40.13942 -100.47317 36927 ft 507 kts 89°
2026-05-07 20:54 40.13979 -100.38088 36912 ft 508 kts 89°
2026-05-07 20:55 40.14008 -100.28919 36888 ft 508 kts 89°
2026-05-07 20:55 40.14125 -99.53883 36820 ft 506 kts 89°
2026-05-07 20:56 40.13586 -98.68872 36820 ft 505 kts 92°
2026-05-07 20:56 40.13336 -98.59703 36890 ft 505 kts 91°
2026-05-07 20:57 40.13144 -98.50510 36894 ft 507 kts 91°
2026-05-07 20:57 40.13012 -98.41334 36898 ft 509 kts 91°
2026-05-07 20:58 40.12892 -98.32059 36904 ft 512 kts 90°
2026-05-07 20:58 40.12763 -98.22725 36894 ft 515 kts 91°
2026-05-07 20:59 40.12621 -98.13366 36881 ft 516 kts 91°
2026-05-07 20:59 40.12547 -98.08714 36554 ft 520 kts 91°
2026-05-07 20:59 40.12470 -98.04007 36216 ft 515 kts 91°
2026-05-07 20:59 40.12392 -97.99345 35823 ft 514 kts 91°
2026-05-07 21:00 40.12311 -97.94633 35472 ft 524 kts 91°
2026-05-07 21:00 40.12226 -97.89815 35036 ft 536 kts 91°
2026-05-07 21:00 40.12138 -97.84907 34650 ft 545 kts 91°
2026-05-07 21:01 40.11957 -97.75147 34577 ft 531 kts 91°
2026-05-07 21:01 40.11865 -97.70371 34235 ft 521 kts 91°
2026-05-07 21:01 40.11773 -97.65679 33706 ft 512 kts 91°
2026-05-07 21:01 40.11682 -97.61125 33175 ft 503 kts 91°
2026-05-07 21:02 40.11589 -97.56597 32661 ft 495 kts 91°
2026-05-07 21:02 40.11496 -97.52130 32138 ft 488 kts 91°
2026-05-07 21:02 40.11402 -97.47737 31606 ft 481 kts 91°
2026-05-07 21:02 40.11308 -97.43407 31102 ft 474 kts 90°
2026-05-07 21:03 40.11214 -97.39136 30609 ft 467 kts 90°
2026-05-07 21:03 40.11120 -97.34917 30123 ft 461 kts 90°
2026-05-07 21:03 40.11026 -97.30758 29587 ft 455 kts 90°
2026-05-07 21:03 40.10932 -97.26705 29035 ft 449 kts 90°
2026-05-07 21:04 40.10837 -97.22654 28480 ft 444 kts 90°
2026-05-07 21:04 40.10742 -97.18649 27986 ft 437 kts 89°
2026-05-07 21:04 40.10647 -97.14735 27726 ft 425 kts 89°
2026-05-07 21:04 40.10553 -97.10905 27449 ft 421 kts 89°
2026-05-07 21:05 40.10460 -97.07068 27216 ft 425 kts 89°
2026-05-07 21:05 40.10365 -97.03192 26972 ft 428 kts 89°
2026-05-07 21:05 40.10268 -96.99319 26716 ft 425 kts 89°
2026-05-07 21:05 40.10168 -96.95479 26444 ft 418 kts 89°
2026-05-07 21:06 40.10069 -96.91697 26178 ft 422 kts 89°
2026-05-07 21:06 40.09971 -96.87845 25849 ft 438 kts 89°
2026-05-07 21:06 40.09866 -96.83814 25497 ft 449 kts 89°
2026-05-07 21:06 40.09756 -96.79685 25078 ft 461 kts 89°
2026-05-07 21:07 40.09640 -96.75456 24698 ft 470 kts 89°
2026-05-07 21:07 40.09519 -96.71148 24280 ft 479 kts 89°
2026-05-07 21:07 40.09395 -96.66769 23882 ft 486 kts 89°
2026-05-07 21:07 40.09268 -96.62322 23450 ft 493 kts 89°
2026-05-07 21:08 40.09134 -96.57828 22970 ft 498 kts 90°
2026-05-07 21:08 40.08660 -96.53395 22510 ft 498 kts 102°
2026-05-07 21:08 40.07747 -96.49142 22161 ft 477 kts 105°
2026-05-07 21:08 40.06776 -96.45090 21787 ft 459 kts 105°
2026-05-07 21:09 40.05827 -96.41193 21415 ft 443 kts 105°
2026-05-07 21:09 40.04925 -96.37424 21080 ft 428 kts 105°
2026-05-07 21:09 40.04073 -96.33766 20754 ft 415 kts 104°
2026-05-07 21:09 40.03262 -96.30206 20437 ft 404 kts 104°
2026-05-07 21:10 40.02483 -96.26738 20132 ft 393 kts 104°
2026-05-07 21:10 40.01737 -96.23401 19831 ft 384 kts 103°
2026-05-07 21:10 40.01001 -96.20099 19542 ft 376 kts 103°
2026-05-07 21:10 40.00276 -96.16847 19266 ft 372 kts 103°
2026-05-07 21:11 39.99553 -96.13599 18989 ft 374 kts 103°
2026-05-07 21:11 39.98824 -96.10333 18707 ft 376 kts 103°
2026-05-07 21:11 39.97351 -96.03763 18088 ft 379 kts 104°
2026-05-07 21:12 39.96610 -96.00470 17770 ft 378 kts 104°
2026-05-07 21:12 39.95871 -95.97191 17453 ft 376 kts 104°
2026-05-07 21:12 39.95145 -95.93981 17202 ft 372 kts 104°
2026-05-07 21:12 39.94417 -95.90760 16909 ft 369 kts 104°
2026-05-07 21:13 39.93691 -95.87557 16614 ft 367 kts 104°
2026-05-07 21:13 39.92970 -95.84377 16332 ft 365 kts 104°
2026-05-07 21:13 39.92253 -95.81218 16048 ft 363 kts 104°
2026-05-07 21:13 39.91539 -95.78076 15766 ft 360 kts 104°
2026-05-07 21:14 39.90829 -95.74958 15482 ft 358 kts 104°
2026-05-07 21:14 39.90122 -95.71855 15209 ft 356 kts 104°
2026-05-07 21:14 39.89418 -95.68771 14949 ft 355 kts 104°
2026-05-07 21:14 39.88726 -95.65743 14667 ft 353 kts 104°
2026-05-07 21:15 39.88027 -95.62685 14392 ft 351 kts 104°
2026-05-07 21:15 39.87329 -95.59643 14121 ft 350 kts 104°
2026-05-07 21:15 39.86634 -95.56613 13849 ft 349 kts 104°
2026-05-07 21:15 39.85940 -95.53590 13561 ft 348 kts 104°
2026-05-07 21:16 39.85249 -95.50585 13261 ft 346 kts 104°
2026-05-07 21:16 39.84559 -95.47592 12974 ft 344 kts 104°
2026-05-07 21:16 39.83874 -95.44619 12698 ft 342 kts 104°
2026-05-07 21:16 39.83201 -95.41704 12435 ft 340 kts 104°
2026-05-07 21:17 39.82521 -95.38767 12175 ft 338 kts 104°
2026-05-07 21:17 39.81652 -95.35932 11881 ft 339 kts 123°
2026-05-07 21:17 39.80099 -95.33647 11617 ft 337 kts 137°
2026-05-07 21:17 39.78395 -95.31563 11332 ft 336 kts 139°
2026-05-07 21:18 39.76681 -95.29506 11022 ft 335 kts 139°
2026-05-07 21:18 39.74972 -95.27450 10710 ft 335 kts 139°
2026-05-07 21:18 39.73265 -95.25383 10422 ft 335 kts 139°
2026-05-07 21:18 39.71590 -95.23342 10134 ft 334 kts 139°
2026-05-07 21:19 39.69900 -95.21277 9903 ft 331 kts 139°
2026-05-07 21:19 39.68254 -95.19260 9809 ft 323 kts 138°
2026-05-07 21:19 39.66620 -95.17253 9391 ft 322 kts 138°
2026-05-07 21:19 39.65000 -95.15273 8994 ft 318 kts 139°
2026-05-07 21:20 39.63403 -95.13321 8591 ft 313 kts 139°
2026-05-07 21:20 39.61826 -95.11394 8223 ft 309 kts 139°
2026-05-07 21:20 39.60297 -95.09452 7838 ft 307 kts 131°
2026-05-07 21:20 39.59296 -95.07028 7464 ft 305 kts 109°
2026-05-07 21:21 39.58620 -95.04502 7217 ft 297 kts 109°
2026-05-07 21:21 39.57956 -95.01990 6961 ft 293 kts 109°
2026-05-07 21:21 39.57292 -94.99501 6717 ft 292 kts 110°
2026-05-07 21:21 39.56624 -94.97024 6482 ft 291 kts 110°
2026-05-07 21:22 39.55953 -94.94555 6246 ft 290 kts 111°
2026-05-07 21:22 39.55280 -94.92100 5991 ft 288 kts 111°
2026-05-07 21:22 39.54609 -94.89656 5738 ft 287 kts 111°
2026-05-07 21:22 39.53943 -94.87231 5497 ft 285 kts 112°
2026-05-07 21:23 39.53297 -94.84850 5237 ft 283 kts 112°
2026-05-07 21:23 39.52650 -94.82456 4989 ft 281 kts 112°
2026-05-07 21:23 39.52008 -94.80089 4748 ft 275 kts 113°
2026-05-07 21:23 39.51386 -94.77778 4488 ft 268 kts 114°
2026-05-07 21:24 39.50777 -94.75524 4236 ft 261 kts 113°
2026-05-07 21:24 39.50194 -94.73377 4206 ft 245 kts 114°
2026-05-07 21:24 39.49482 -94.71443 3977 ft 232 kts 139°
2026-05-07 21:24 39.48236 -94.70359 3856 ft 206 kts 162°
2026-05-07 21:25 39.46930 -94.69770 3658 ft 195 kts 169°
2026-05-07 21:25 39.45670 -94.69301 3501 ft 187 kts 171°
2026-05-07 21:25 39.44420 -94.68846 3376 ft 186 kts 172°
2026-05-07 21:25 39.43159 -94.68896 3206 ft 178 kts 199°
2026-05-07 21:26 39.41972 -94.69231 2993 ft 173 kts 194°
2026-05-07 21:26 39.40790 -94.69534 2788 ft 172 kts 195°
2026-05-07 21:26 39.39624 -94.69851 2534 ft 168 kts 196°
2026-05-07 21:26 39.38544 -94.70187 2327 ft 151 kts 198°
2026-05-07 21:27 39.37547 -94.70490 2173 ft 149 kts 197°
2026-05-07 21:27 39.36532 -94.70792 1969 ft 149 kts 197°
2026-05-07 21:27 39.35537 -94.71089 1716 ft 143 kts 198°
2026-05-07 21:27 39.34599 -94.71403 1506 ft 137 kts 198°
2026-05-07 21:28 39.33658 -94.71649 1317 ft 138 kts 196°
2026-05-07 21:28 39.32713 -94.71930 1160 ft 143 kts 196°
2026-05-07 21:28 39.31747 -94.72220 1019 ft 135 kts 195°
2026-05-07 21:28 39.30974 -94.72451 1013 ft 84 kts 193°
2026-05-07 21:29 39.30617 -94.72553 1012 ft 28 kts 191°
2026-05-07 21:29 39.30444 -94.72569 1012 ft 24 kts 169°
2026-05-07 21:29 39.30364 -94.72541 1013 ft 6 kts 158°
2026-05-07 21:29 39.30327 -94.72517 1013 ft 6 kts 155°
2026-05-07 21:30 39.30292 -94.72490 1014 ft 6 kts 131°
2026-05-07 21:30 39.30276 -94.72442 1014 ft 6 kts 112°
2026-05-07 21:30 39.30251 -94.72404 1013 ft 6 kts 149°
2026-05-07 21:30 39.30214 -94.72387 1013 ft 6 kts 161°
2026-05-07 21:31 39.30182 -94.72360 1013 ft 6 kts 125°
2026-05-07 21:31 39.30170 -94.72303 1013 ft 8 kts 103°
2026-05-07 21:31 39.30155 -94.72222 1013 ft 11 kts 104°
2026-05-07 21:31 39.30137 -94.72122 1013 ft 11 kts 103°
2026-05-07 21:32 39.30092 -94.72066 1013 ft 11 kts 180°
2026-05-07 21:32 39.30035 -94.72080 1013 ft 3 kts 193°
2026-05-07 21:32 39.30010 -94.72095 1013 ft 5 kts 228°
2026-05-07 21:32 39.30012 -94.72140 1013 ft 6 kts 281°
2026-05-07 21:33 39.30015 -94.72157 1013 ft 0 kts 282°